AFR579 GUCY-LFPG

Flight info

Callsign AFR579
Flight time 3h 8m
Altitude 39000
Route DIRNO1D DIRNO UR72 BUMBI UM372 SADKA/N0478F410 UM372 BULIS/N0475F400 DCT MABAP UR722 SAK UG5 KORIS DCT SVL DCT HIJ DCT RUSEM DCT SOTUK DCT USOKO DCT TLD DCT SIE DCT EDIGO DCT DGO DCT ABRIX DCT CNA DCT POI/N0442F300 DCT PEPAX UT182 KEPER
Aircraft A359/H-SDE2E3GHIJ3J4J5LM1ORWXY/LB1D1

Departure

Time 2026-05-07 23:37
Airport Ahmed Sékou Touré International Airport (GUCY)

Arrival

Time 2026-05-08 02:45
Airport Charles de Gaulle International Airport (LFPG)
Time Latitude Longitude Altitude Speed Heading
2026-05-07 23:33 9.57129 -13.61915 92 ft 13 kts 124°
2026-05-07 23:33 9.57147 -13.61832 89 ft 14 kts 50°
2026-05-07 23:33 9.57260 -13.61698 91 ft 17 kts 49°
2026-05-07 23:34 9.57432 -13.61495 86 ft 21 kts 49°
2026-05-07 23:34 9.57646 -13.61245 83 ft 26 kts 49°
2026-05-07 23:34 9.57892 -13.60956 67 ft 28 kts 49°
2026-05-07 23:34 9.58149 -13.60655 68 ft 26 kts 49°
2026-05-07 23:35 9.58395 -13.60365 66 ft 29 kts 49°
2026-05-07 23:35 9.58594 -13.60148 66 ft 14 kts 21°
2026-05-07 23:35 9.58648 -13.60098 63 ft 7 kts 104°
2026-05-07 23:35 9.58627 -13.60099 63 ft 3 kts 221°
2026-05-07 23:36 9.58590 -13.60141 62 ft 23 kts 228°
2026-05-07 23:36 9.58326 -13.60449 68 ft 91 kts 229°
2026-05-07 23:36 9.57780 -13.61086 85 ft 147 kts 229°
2026-05-07 23:36 9.57047 -13.61940 513 ft 160 kts 229°
2026-05-07 23:37 9.56335 -13.62775 1239 ft 156 kts 229°
2026-05-07 23:37 9.55590 -13.63657 1609 ft 174 kts 229°
2026-05-07 23:37 9.54755 -13.64649 1803 ft 202 kts 229°
2026-05-07 23:37 9.53839 -13.65846 2057 ft 229 kts 239°
2026-05-07 23:38 9.53484 -13.67480 2456 ft 251 kts 275°
2026-05-07 23:38 9.54208 -13.69114 3015 ft 266 kts 311°
2026-05-07 23:38 9.55794 -13.70094 3647 ft 274 kts 346°
2026-05-07 23:38 9.58428 -13.70360 4675 ft 276 kts 357°
2026-05-07 23:39 9.62240 -13.70749 6289 ft 273 kts 354°
2026-05-07 23:39 9.66043 -13.71310 7677 ft 280 kts 354°
2026-05-07 23:39 9.69906 -13.71944 9084 ft 287 kts 355°
2026-05-07 23:39 9.73891 -13.72095 10337 ft 293 kts 20°
2026-05-07 23:40 9.77180 -13.69484 10819 ft 321 kts 52°
2026-05-07 23:40 9.80140 -13.65903 11787 ft 337 kts 52°
2026-05-07 23:40 9.83214 -13.62229 13035 ft 345 kts 52°
2026-05-07 23:40 9.86374 -13.58486 14211 ft 354 kts 51°
2026-05-07 23:41 9.89616 -13.54647 15257 ft 362 kts 51°
2026-05-07 23:41 9.92937 -13.50715 16278 ft 371 kts 51°
2026-05-07 23:41 9.96335 -13.46721 17317 ft 378 kts 49°
2026-05-07 23:41 9.98983 -13.44388 17989 ft 385 kts 34°
2026-05-07 23:42 10.04037 -13.42443 18908 ft 395 kts 11°
2026-05-07 23:42 10.09523 -13.41580 19864 ft 400 kts
2026-05-07 23:42 10.16886 -13.40453 21158 ft 406 kts
2026-05-07 23:42 10.22521 -13.39575 22021 ft 413 kts
2026-05-07 23:43 10.26403 -13.38967 22588 ft 418 kts
2026-05-07 23:43 10.32195 -13.38059 23441 ft 424 kts
2026-05-07 23:43 10.38008 -13.37147 24102 ft 431 kts
2026-05-07 23:43 10.43971 -13.36210 24788 ft 438 kts
2026-05-07 23:44 10.50045 -13.35256 25511 ft 445 kts
2026-05-07 23:44 10.56220 -13.34285 26261 ft 453 kts
2026-05-07 23:44 10.62512 -13.33295 27057 ft 460 kts
2026-05-07 23:44 10.68895 -13.32291 27843 ft 467 kts
2026-05-07 23:45 10.75363 -13.31273 28613 ft 474 kts
2026-05-07 23:45 10.81934 -13.30238 29343 ft 481 kts
2026-05-07 23:45 10.88589 -13.29189 30031 ft 488 kts
2026-05-07 23:45 10.95342 -13.28125 30670 ft 493 kts
2026-05-07 23:46 11.02182 -13.27046 31297 ft 498 kts
2026-05-07 23:46 11.09056 -13.25962 31842 ft 504 kts
2026-05-07 23:46 11.16021 -13.24862 32415 ft 508 kts
2026-05-07 23:46 11.23051 -13.23752 32948 ft 513 kts
2026-05-07 23:47 11.30121 -13.22635 33462 ft 517 kts
2026-05-07 23:47 11.37255 -13.21508 33929 ft 521 kts
2026-05-07 23:47 11.44479 -13.20366 34276 ft 526 kts
2026-05-07 23:47 11.51674 -13.19227 34894 ft 522 kts
2026-05-07 23:48 11.58842 -13.18091 35588 ft 518 kts
2026-05-07 23:48 11.65850 -13.16981 36217 ft 514 kts
2026-05-07 23:48 11.72911 -13.15862 36801 ft 512 kts
2026-05-07 23:48 11.79923 -13.14577 37221 ft 514 kts 10°
2026-05-07 23:49 11.86846 -13.12794 37801 ft 511 kts 11°
2026-05-07 23:49 11.93685 -13.10917 38344 ft 508 kts 11°
2026-05-07 23:49 12.00513 -13.09050 38748 ft 506 kts 11°
2026-05-07 23:49 12.07347 -13.07203 38920 ft 508 kts 11°
2026-05-07 23:50 12.21044 -13.03518 38908 ft 508 kts 11°
2026-05-07 23:50 12.34736 -12.99830 38900 ft 508 kts 11°
2026-05-07 23:51 12.48434 -12.96196 38895 ft 508 kts
2026-05-07 23:51 12.62172 -12.93066 38886 ft 509 kts
2026-05-07 23:52 12.76037 -12.89901 38870 ft 510 kts
2026-05-07 23:52 12.89910 -12.86694 38867 ft 512 kts
2026-05-07 23:53 13.03829 -12.83474 38862 ft 513 kts
2026-05-07 23:53 13.17748 -12.80251 38862 ft 513 kts
2026-05-07 23:54 13.31698 -12.77018 38851 ft 514 kts
2026-05-07 23:54 13.45542 -12.73803 38854 ft 512 kts
2026-05-07 23:55 13.59449 -12.70577 38853 ft 511 kts
2026-05-07 23:55 13.73339 -12.67342 38851 ft 511 kts
2026-05-07 23:56 13.87230 -12.64106 38851 ft 511 kts
2026-05-07 23:56 14.01165 -12.60858 38848 ft 514 kts
2026-05-07 23:57 14.15135 -12.57595 38843 ft 514 kts
2026-05-07 23:57 14.29006 -12.54352 38843 ft 514 kts
2026-05-07 23:58 14.42959 -12.51086 38842 ft 514 kts
2026-05-07 23:58 14.56946 -12.47807 38842 ft 514 kts
2026-05-07 23:59 14.70946 -12.44523 38844 ft 518 kts
2026-05-07 23:59 14.85014 -12.41221 38840 ft 518 kts
2026-05-08 00:00 14.99036 -12.37914 38846 ft 515 kts
2026-05-08 00:00 15.13024 -12.34619 38841 ft 516 kts
2026-05-08 00:01 15.27028 -12.31315 38836 ft 515 kts
2026-05-08 00:01 15.40940 -12.28029 38840 ft 518 kts
2026-05-08 00:02 15.55010 -12.24698 38843 ft 518 kts
2026-05-08 00:02 15.69074 -12.21369 38847 ft 518 kts
2026-05-08 00:03 15.83108 -12.18033 38850 ft 518 kts
2026-05-08 00:03 15.97190 -12.14686 38853 ft 518 kts
2026-05-08 00:04 16.11212 -12.11350 38856 ft 521 kts
2026-05-08 00:04 16.25339 -12.07981 38855 ft 521 kts
2026-05-08 00:05 16.39493 -12.04602 38859 ft 522 kts
2026-05-08 00:05 16.53653 -12.01214 38866 ft 521 kts
2026-05-08 00:06 16.67790 -11.97830 38867 ft 520 kts
2026-05-08 00:06 16.81878 -11.94456 38870 ft 526 kts
2026-05-08 00:07 16.96156 -11.91026 38872 ft 526 kts
2026-05-08 00:07 17.10427 -11.87591 38876 ft 527 kts
2026-05-08 00:08 17.24763 -11.84139 38880 ft 527 kts
2026-05-08 00:08 17.39061 -11.80688 38890 ft 527 kts
2026-05-08 00:09 17.53418 -11.77220 38895 ft 529 kts
2026-05-08 00:09 17.67682 -11.73766 38889 ft 529 kts
2026-05-08 00:10 17.82040 -11.70286 38896 ft 529 kts
2026-05-08 00:10 17.96400 -11.66799 38894 ft 529 kts
2026-05-08 00:11 18.10745 -11.63314 38902 ft 529 kts
2026-05-08 00:11 18.24999 -11.59837 38898 ft 529 kts
2026-05-08 00:12 18.39331 -11.56338 38902 ft 529 kts
2026-05-08 00:12 18.53682 -11.52830 38906 ft 530 kts
2026-05-08 00:13 18.68062 -11.49308 38897 ft 530 kts
2026-05-08 00:13 18.82425 -11.45783 38899 ft 530 kts
2026-05-08 00:14 18.96808 -11.42249 38890 ft 531 kts
2026-05-08 00:14 19.11202 -11.38705 38907 ft 531 kts
2026-05-08 00:15 19.25630 -11.35147 38881 ft 532 kts
2026-05-08 00:15 19.40048 -11.31584 38879 ft 531 kts
2026-05-08 00:16 19.54395 -11.28033 38884 ft 533 kts
2026-05-08 00:16 19.68927 -11.24429 38883 ft 533 kts
2026-05-08 00:17 19.83302 -11.20858 38892 ft 535 kts
2026-05-08 00:17 19.97851 -11.17237 38890 ft 537 kts
2026-05-08 00:18 20.12431 -11.13602 38916 ft 537 kts
2026-05-08 00:18 20.27035 -11.09952 38889 ft 541 kts
2026-05-08 00:19 20.41709 -11.06276 38892 ft 541 kts
2026-05-08 00:19 20.56245 -11.02628 38895 ft 539 kts
2026-05-08 00:20 20.70883 -10.98950 38895 ft 539 kts
2026-05-08 00:20 20.85484 -10.95271 38894 ft 536 kts
2026-05-08 00:21 21.00006 -10.91607 38900 ft 537 kts
2026-05-08 00:21 21.14498 -10.87944 38905 ft 537 kts
2026-05-08 00:22 21.29037 -10.84260 38906 ft 537 kts
2026-05-08 00:22 21.43596 -10.80564 38906 ft 537 kts
2026-05-08 00:23 21.58106 -10.76872 38913 ft 536 kts
2026-05-08 00:23 21.72604 -10.73176 38898 ft 535 kts
2026-05-08 00:24 21.87084 -10.69477 38902 ft 535 kts
2026-05-08 00:24 22.01580 -10.65766 38905 ft 535 kts
2026-05-08 00:25 22.16053 -10.62054 38905 ft 533 kts
2026-05-08 00:25 22.30408 -10.58363 38903 ft 532 kts
2026-05-08 00:26 22.44917 -10.54626 38921 ft 533 kts
2026-05-08 00:26 22.59273 -10.50917 38901 ft 529 kts
2026-05-08 00:27 22.73479 -10.47244 38887 ft 529 kts
2026-05-08 00:27 22.87749 -10.43542 38934 ft 524 kts
2026-05-08 00:28 22.94842 -10.41701 39244 ft 524 kts
2026-05-08 00:28 23.01928 -10.39857 39583 ft 523 kts
2026-05-08 00:28 23.09012 -10.38013 39913 ft 523 kts
2026-05-08 00:28 23.16038 -10.36179 40394 ft 518 kts
2026-05-08 00:29 23.20688 -10.34966 40534 ft 518 kts
2026-05-08 00:29 23.27701 -10.33137 40743 ft 519 kts
2026-05-08 00:29 23.34740 -10.31299 40898 ft 520 kts
2026-05-08 00:29 23.41779 -10.29458 40920 ft 521 kts
2026-05-08 00:30 23.55854 -10.25765 40906 ft 519 kts
2026-05-08 00:30 23.69897 -10.22077 40908 ft 519 kts
2026-05-08 00:31 23.83834 -10.18406 40906 ft 518 kts
2026-05-08 00:31 23.97838 -10.14712 40911 ft 518 kts
2026-05-08 00:32 24.11854 -10.11006 40916 ft 519 kts
2026-05-08 00:32 24.25893 -10.07284 40924 ft 519 kts
2026-05-08 00:33 24.39961 -10.03546 40928 ft 519 kts
2026-05-08 00:33 24.54023 -9.99802 40934 ft 519 kts
2026-05-08 00:34 24.68071 -9.96053 40952 ft 519 kts
2026-05-08 00:34 24.82110 -9.92297 40939 ft 519 kts
2026-05-08 00:35 24.96138 -9.88536 40944 ft 519 kts
2026-05-08 00:35 25.10177 -9.84761 40951 ft 518 kts
2026-05-08 00:36 25.24167 -9.80993 40943 ft 517 kts
2026-05-08 00:36 25.38065 -9.77240 40947 ft 516 kts
2026-05-08 00:37 25.52011 -9.73465 40955 ft 516 kts
2026-05-08 00:38 25.72965 -9.67776 40950 ft 515 kts
2026-05-08 00:38 25.86878 -9.63988 40965 ft 515 kts
2026-05-08 00:39 26.00705 -9.60213 40961 ft 514 kts
2026-05-08 00:39 26.14629 -9.56403 40965 ft 514 kts
2026-05-08 00:40 26.28535 -9.52589 40966 ft 514 kts
2026-05-08 00:40 26.42439 -9.48765 40968 ft 514 kts
2026-05-08 00:41 26.56336 -9.44935 41009 ft 515 kts
2026-05-08 00:41 26.70229 -9.41094 40978 ft 514 kts
2026-05-08 00:42 26.83256 -9.37486 40975 ft 514 kts
2026-05-08 00:42 26.93695 -9.34587 40920 ft 513 kts
2026-05-08 00:42 27.00586 -9.32668 40071 ft 509 kts
2026-05-08 00:43 27.07493 -9.30747 39970 ft 511 kts
2026-05-08 00:43 27.21306 -9.26895 39971 ft 511 kts
2026-05-08 00:44 27.35119 -9.23032 39966 ft 511 kts
2026-05-08 00:44 27.48934 -9.19159 39966 ft 511 kts
2026-05-08 00:45 27.62648 -9.15303 39963 ft 511 kts
2026-05-08 00:45 27.76498 -9.11987 39987 ft 505 kts
2026-05-08 00:46 27.90401 -9.09348 39954 ft 507 kts
2026-05-08 00:46 28.04301 -9.06521 39935 ft 507 kts
2026-05-08 00:47 28.18194 -9.03677 39941 ft 507 kts
2026-05-08 00:47 28.32023 -9.00843 39931 ft 507 kts
2026-05-08 00:48 28.45950 -8.97980 39925 ft 507 kts
2026-05-08 00:48 28.59844 -8.95119 39911 ft 507 kts
2026-05-08 00:49 28.73632 -8.92270 39887 ft 506 kts
2026-05-08 00:49 28.87508 -8.89397 39885 ft 506 kts
2026-05-08 00:50 29.01396 -8.86512 39882 ft 507 kts
2026-05-08 00:50 29.15319 -8.83613 39881 ft 507 kts
2026-05-08 00:51 29.29206 -8.80712 39891 ft 507 kts
2026-05-08 00:51 29.43118 -8.77799 39894 ft 508 kts
2026-05-08 00:52 29.50647 -8.76219 39899 ft 508 kts
2026-05-08 00:52 29.57655 -8.74747 39912 ft 508 kts
2026-05-08 00:53 29.64567 -8.73292 39907 ft 508 kts
2026-05-08 00:53 29.71525 -8.71826 39931 ft 508 kts
2026-05-08 00:54 29.78496 -8.70354 39945 ft 509 kts
2026-05-08 00:54 29.85463 -8.68882 39952 ft 509 kts
2026-05-08 00:55 29.92445 -8.67405 39956 ft 510 kts
2026-05-08 00:55 29.99429 -8.65925 39955 ft 510 kts
2026-05-08 00:56 30.06363 -8.64453 39969 ft 510 kts
2026-05-08 00:56 30.13352 -8.62966 39980 ft 510 kts
2026-05-08 00:57 30.20341 -8.61479 39969 ft 510 kts
2026-05-08 00:57 30.27336 -8.59989 39976 ft 511 kts
2026-05-08 00:58 30.34319 -8.58498 39984 ft 510 kts
2026-05-08 00:58 30.41310 -8.57001 39981 ft 510 kts
2026-05-08 00:59 30.48237 -8.55517 39976 ft 510 kts
2026-05-08 00:59 30.55224 -8.54019 39976 ft 510 kts
2026-05-08 01:00 30.62212 -8.52520 39974 ft 510 kts
2026-05-08 01:00 30.69207 -8.51016 39994 ft 511 kts
2026-05-08 01:01 30.76167 -8.49519 39971 ft 513 kts
2026-05-08 01:01 30.83202 -8.48003 39963 ft 514 kts
2026-05-08 01:02 30.90232 -8.46485 39964 ft 514 kts
2026-05-08 01:02 30.97267 -8.44962 39993 ft 514 kts
2026-05-08 01:03 31.04302 -8.43438 39938 ft 515 kts
2026-05-08 01:03 31.11327 -8.41914 39940 ft 516 kts
2026-05-08 01:04 31.18388 -8.40381 39943 ft 516 kts
2026-05-08 01:04 31.25449 -8.38842 39951 ft 516 kts
2026-05-08 01:05 31.32515 -8.37301 39928 ft 517 kts
2026-05-08 01:05 31.39590 -8.35756 39936 ft 517 kts
2026-05-08 01:06 31.46670 -8.34207 39933 ft 517 kts
2026-05-08 01:06 31.53719 -8.32663 39959 ft 517 kts
2026-05-08 01:07 31.60815 -8.31109 39938 ft 519 kts
2026-05-08 01:07 31.67909 -8.29551 39937 ft 519 kts
2026-05-08 01:08 31.75025 -8.27985 39941 ft 519 kts
2026-05-08 01:08 31.82083 -8.26429 39968 ft 519 kts
2026-05-08 01:09 31.89218 -8.24858 39948 ft 522 kts
2026-05-08 01:09 31.96358 -8.23280 39946 ft 523 kts
2026-05-08 01:10 32.03518 -8.21692 39951 ft 523 kts
2026-05-08 01:10 32.10662 -8.20107 39966 ft 523 kts
2026-05-08 01:11 32.17834 -8.18657 39945 ft 521 kts 358°
2026-05-08 01:11 32.25029 -8.17560 39950 ft 520 kts 357°
2026-05-08 01:12 32.32210 -8.16483 39949 ft 520 kts 358°
2026-05-08 01:12 32.39355 -8.15353 39951 ft 522 kts 358°
2026-05-08 01:13 32.46589 -8.14180 39949 ft 525 kts 358°
2026-05-08 01:13 32.53841 -8.12990 39955 ft 525 kts 358°
2026-05-08 01:14 32.61084 -8.11803 39947 ft 525 kts 358°
2026-05-08 01:14 32.68293 -8.10625 39961 ft 528 kts 359°
2026-05-08 01:15 32.75622 -8.09432 39947 ft 532 kts 359°
2026-05-08 01:15 32.82958 -8.08225 39951 ft 532 kts 359°
2026-05-08 01:16 32.90286 -8.06951 39981 ft 537 kts
2026-05-08 01:16 32.93928 -8.05728 39955 ft 549 kts 15°
2026-05-08 01:16 32.97434 -8.03828 39951 ft 556 kts 21°
2026-05-08 01:17 33.03163 -8.00224 39947 ft 560 kts 24°
2026-05-08 01:17 33.11086 -7.94944 39945 ft 561 kts 24°
2026-05-08 01:18 33.16788 -7.91137 39950 ft 561 kts 24°
2026-05-08 01:18 33.23573 -7.86642 39941 ft 561 kts 24°
2026-05-08 01:19 33.30414 -7.82121 39941 ft 561 kts 24°
2026-05-08 01:19 33.37236 -7.77609 39938 ft 561 kts 24°
2026-05-08 01:20 33.44062 -7.73084 39927 ft 561 kts 24°
2026-05-08 01:20 33.50860 -7.68570 39911 ft 562 kts 25°
2026-05-08 01:21 33.57750 -7.64151 39911 ft 561 kts 22°
2026-05-08 01:21 33.64734 -7.59989 39911 ft 560 kts 21°
2026-05-08 01:22 33.71739 -7.55815 39925 ft 561 kts 21°
2026-05-08 01:22 33.78721 -7.51595 39949 ft 563 kts 22°
2026-05-08 01:23 33.85716 -7.47332 39947 ft 563 kts 22°
2026-05-08 01:23 33.92700 -7.43062 39955 ft 563 kts 22°
2026-05-08 01:24 33.99649 -7.38809 39998 ft 563 kts 22°
2026-05-08 01:24 34.06650 -7.34519 39962 ft 564 kts 22°
2026-05-08 01:25 34.13652 -7.30223 39960 ft 565 kts 22°
2026-05-08 01:25 34.20663 -7.25913 39962 ft 565 kts 22°
2026-05-08 01:26 34.27655 -7.21597 39953 ft 565 kts 23°
2026-05-08 01:26 34.34653 -7.17271 39957 ft 565 kts 23°
2026-05-08 01:27 34.41651 -7.12941 39956 ft 565 kts 23°
2026-05-08 01:27 34.48609 -7.08626 39957 ft 565 kts 23°
2026-05-08 01:28 34.55616 -7.04274 39968 ft 565 kts 23°
2026-05-08 01:28 34.62611 -6.99929 39960 ft 565 kts 23°
2026-05-08 01:29 34.69624 -6.95632 39957 ft 564 kts 23°
2026-05-08 01:29 34.82139 -6.87969 39967 ft 564 kts 23°
2026-05-08 01:30 34.96038 -6.79404 39952 ft 563 kts 23°
2026-05-08 01:30 35.10014 -6.70757 39958 ft 562 kts 23°
2026-05-08 01:31 35.23984 -6.62082 39950 ft 562 kts 24°
2026-05-08 01:31 35.37919 -6.53394 39941 ft 561 kts 24°
2026-05-08 01:32 35.51798 -6.44606 39930 ft 561 kts 25°
2026-05-08 01:32 35.65473 -6.35604 39937 ft 560 kts 25°
2026-05-08 01:33 35.79222 -6.26600 39941 ft 559 kts 25°
2026-05-08 01:33 35.86386 -6.23121 39948 ft 550 kts 11°
2026-05-08 01:33 35.93807 -6.20766 39957 ft 549 kts
2026-05-08 01:34 36.08680 -6.16460 39963 ft 549 kts
2026-05-08 01:34 36.23526 -6.12091 39948 ft 548 kts
2026-05-08 01:35 36.38353 -6.07691 39948 ft 547 kts
2026-05-08 01:35 36.53058 -6.03312 39944 ft 547 kts
2026-05-08 01:36 36.67839 -5.98894 39945 ft 545 kts
2026-05-08 01:36 36.82608 -5.94462 39929 ft 544 kts
2026-05-08 01:37 36.97319 -5.90030 39935 ft 543 kts
2026-05-08 01:37 37.12009 -5.85587 39936 ft 542 kts
2026-05-08 01:38 37.26645 -5.81143 39931 ft 541 kts
2026-05-08 01:38 37.41271 -5.76605 39935 ft 543 kts 14°
2026-05-08 01:39 37.55048 -5.68887 39927 ft 546 kts 23°
2026-05-08 01:39 37.68712 -5.60523 39934 ft 543 kts 24°
2026-05-08 01:40 37.82349 -5.52210 39928 ft 543 kts 24°
2026-05-08 01:40 37.95932 -5.43904 39932 ft 541 kts 24°
2026-05-08 01:41 38.09499 -5.35572 39931 ft 541 kts 24°
2026-05-08 01:41 38.23001 -5.27244 39922 ft 538 kts 23°
2026-05-08 01:42 38.36389 -5.18953 39912 ft 538 kts 24°
2026-05-08 01:42 38.49861 -5.10576 39913 ft 538 kts 24°
2026-05-08 01:43 38.63610 -5.03259 39911 ft 534 kts 18°
2026-05-08 01:43 38.77463 -4.96340 39912 ft 535 kts 19°
2026-05-08 01:44 38.91230 -4.89241 39907 ft 530 kts 19°
2026-05-08 01:44 39.04940 -4.82151 39915 ft 530 kts 19°
2026-05-08 01:45 39.18630 -4.75035 39907 ft 531 kts 19°
2026-05-08 01:45 39.32326 -4.67892 39911 ft 530 kts 19°
2026-05-08 01:46 39.45999 -4.60726 39912 ft 530 kts 19°
2026-05-08 01:46 39.59526 -4.53607 39913 ft 523 kts 19°
2026-05-08 01:47 39.72981 -4.46501 39929 ft 522 kts 19°
2026-05-08 01:47 39.86436 -4.39366 39931 ft 521 kts 19°
2026-05-08 01:48 40.06335 -4.28210 39938 ft 522 kts 22°
2026-05-08 01:48 40.19422 -4.20042 39948 ft 521 kts 22°
2026-05-08 01:49 40.32570 -4.11968 39952 ft 521 kts 22°
2026-05-08 01:49 40.45701 -4.03881 39964 ft 521 kts 22°
2026-05-08 01:50 40.58858 -3.95738 39962 ft 522 kts 22°
2026-05-08 01:50 40.71995 -3.87572 39958 ft 522 kts 22°
2026-05-08 01:51 40.85026 -3.79433 39976 ft 521 kts 21°
2026-05-08 01:51 40.98110 -3.71230 39961 ft 520 kts 21°
2026-05-08 01:52 41.11167 -3.63006 39952 ft 519 kts 21°
2026-05-08 01:52 41.24367 -3.55268 39948 ft 516 kts 17°
2026-05-08 01:53 41.37695 -3.48175 39964 ft 515 kts 18°
2026-05-08 01:53 41.50883 -3.40940 39976 ft 514 kts 18°
2026-05-08 01:54 41.64067 -3.33660 39977 ft 511 kts 18°
2026-05-08 01:54 41.77209 -3.26371 39983 ft 510 kts 18°
2026-05-08 01:55 41.90320 -3.19071 39985 ft 510 kts 18°
2026-05-08 01:55 42.03386 -3.11761 39988 ft 506 kts 18°
2026-05-08 01:56 42.16374 -3.04465 39995 ft 505 kts 18°
2026-05-08 01:56 42.29258 -2.97193 39985 ft 501 kts 18°
2026-05-08 01:57 42.42128 -2.89899 39980 ft 500 kts 18°
2026-05-08 01:57 42.54449 -2.81249 39975 ft 503 kts 25°
2026-05-08 01:58 42.66674 -2.71960 39955 ft 502 kts 25°
2026-05-08 01:58 42.78851 -2.62696 39939 ft 500 kts 25°
2026-05-08 01:59 42.90974 -2.53440 39955 ft 499 kts 25°
2026-05-08 01:59 43.03103 -2.44134 39952 ft 498 kts 25°
2026-05-08 02:00 43.15157 -2.34843 39946 ft 498 kts 25°
2026-05-08 02:00 43.27262 -2.25474 39928 ft 500 kts 25°
2026-05-08 02:01 43.39355 -2.16071 39920 ft 500 kts 25°
2026-05-08 02:01 43.51430 -2.06634 39911 ft 496 kts 26°
2026-05-08 02:02 43.63344 -1.97282 39921 ft 496 kts 26°
2026-05-08 02:02 43.75328 -1.87828 39912 ft 495 kts 26°
2026-05-08 02:03 43.87301 -1.78336 39911 ft 496 kts 26°
2026-05-08 02:03 43.99280 -1.68795 39911 ft 496 kts 26°
2026-05-08 02:04 44.11269 -1.59202 39919 ft 497 kts 26°
2026-05-08 02:04 44.23269 -1.49555 39931 ft 498 kts 27°
2026-05-08 02:05 44.35218 -1.39901 39930 ft 499 kts 27°
2026-05-08 02:05 44.47247 -1.30137 39939 ft 499 kts 27°
2026-05-08 02:06 44.59238 -1.20357 39938 ft 499 kts 27°
2026-05-08 02:06 44.71239 -1.10522 39941 ft 500 kts 27°
2026-05-08 02:07 44.83264 -1.00619 39945 ft 500 kts 27°
2026-05-08 02:07 44.93260 -0.92350 39942 ft 500 kts 27°
2026-05-08 02:08 45.07205 -0.80758 39951 ft 500 kts 27°
2026-05-08 02:08 45.17244 -0.72372 39954 ft 501 kts 27°
2026-05-08 02:09 45.29248 -0.62299 39952 ft 501 kts 28°
2026-05-08 02:09 45.41229 -0.52194 39962 ft 501 kts 28°
2026-05-08 02:10 45.53133 -0.42103 39965 ft 501 kts 28°
2026-05-08 02:10 45.65128 -0.31941 39961 ft 499 kts 25°
2026-05-08 02:11 45.77679 -0.23503 39971 ft 498 kts 21°
2026-05-08 02:11 45.90275 -0.15297 39963 ft 497 kts 21°
2026-05-08 02:12 46.02865 -0.07019 39968 ft 497 kts 22°
2026-05-08 02:12 46.15450 0.01300 39972 ft 497 kts 22°
2026-05-08 02:13 46.27935 0.09594 39975 ft 497 kts 22°
2026-05-08 02:13 46.40520 0.17996 39983 ft 497 kts 22°
2026-05-08 02:14 46.53064 0.26415 39995 ft 497 kts 22°
2026-05-08 02:14 46.59500 0.30054 39998 ft 492 kts 11°
2026-05-08 02:14 46.66160 0.32340 39996 ft 492 kts
2026-05-08 02:15 46.79557 0.36413 39978 ft 492 kts
2026-05-08 02:15 46.92875 0.40503 39991 ft 492 kts
2026-05-08 02:16 47.06308 0.44441 39934 ft 486 kts
2026-05-08 02:16 47.09960 0.44573 39288 ft 482 kts 353°
2026-05-08 02:16 47.13297 0.44046 38408 ft 485 kts 349°
2026-05-08 02:17 47.16656 0.43316 37465 ft 488 kts 348°
2026-05-08 02:17 47.20021 0.42493 36622 ft 489 kts 347°
2026-05-08 02:17 47.23373 0.41639 35818 ft 490 kts 347°
2026-05-08 02:17 47.26684 0.40793 35078 ft 488 kts 347°
2026-05-08 02:18 47.30011 0.39952 34422 ft 484 kts 348°
2026-05-08 02:18 47.33325 0.39126 33734 ft 480 kts 348°
2026-05-08 02:18 47.36607 0.38314 32961 ft 478 kts 348°
2026-05-08 02:18 47.39887 0.37507 32205 ft 476 kts 348°
2026-05-08 02:19 47.43156 0.36704 31449 ft 475 kts 348°
2026-05-08 02:19 47.46414 0.35904 30798 ft 472 kts 348°
2026-05-08 02:19 47.49628 0.35114 30191 ft 468 kts 348°
2026-05-08 02:19 47.52842 0.34317 29486 ft 466 kts 348°
2026-05-08 02:20 47.56021 0.33528 28845 ft 462 kts 348°
2026-05-08 02:20 47.59171 0.32745 28222 ft 457 kts 348°
2026-05-08 02:20 47.62306 0.31966 27578 ft 454 kts 348°
2026-05-08 02:20 47.65413 0.31192 26969 ft 451 kts 348°
2026-05-08 02:21 47.68455 0.30434 26401 ft 447 kts 348°
2026-05-08 02:21 47.71509 0.29672 25838 ft 443 kts 348°
2026-05-08 02:21 47.74535 0.28916 25268 ft 440 kts 348°
2026-05-08 02:21 47.77557 0.28280 24711 ft 438 kts 354°
2026-05-08 02:22 47.80581 0.28607 24215 ft 438 kts 11°
2026-05-08 02:22 47.83406 0.30275 23713 ft 436 kts 30°
2026-05-08 02:22 47.85908 0.32762 23289 ft 429 kts 34°
2026-05-08 02:22 47.88307 0.35320 22934 ft 419 kts 34°
2026-05-08 02:23 47.90653 0.37817 22618 ft 410 kts 34°
2026-05-08 02:23 47.92966 0.40265 22316 ft 405 kts 34°
2026-05-08 02:23 47.95265 0.42686 22032 ft 404 kts 34°
2026-05-08 02:23 47.97557 0.45095 21689 ft 401 kts 34°
2026-05-08 02:24 47.99837 0.47495 21375 ft 399 kts 34°
2026-05-08 02:24 48.02109 0.49886 21068 ft 397 kts 34°
2026-05-08 02:24 48.04361 0.52259 20750 ft 396 kts 34°
2026-05-08 02:24 48.06604 0.54623 20433 ft 394 kts 34°
2026-05-08 02:25 48.08818 0.56959 20150 ft 392 kts 34°
2026-05-08 02:25 48.11035 0.59300 19863 ft 391 kts 34°
2026-05-08 02:25 48.13258 0.61649 19549 ft 389 kts 34°
2026-05-08 02:25 48.15464 0.63983 19247 ft 388 kts 34°
2026-05-08 02:26 48.17670 0.66320 18944 ft 386 kts 34°
2026-05-08 02:26 48.19857 0.68639 18637 ft 385 kts 34°
2026-05-08 02:26 48.22036 0.70952 18345 ft 383 kts 34°
2026-05-08 02:26 48.24206 0.73257 18010 ft 381 kts 34°
2026-05-08 02:27 48.26358 0.75546 17725 ft 379 kts 35°
2026-05-08 02:27 48.28512 0.77840 17435 ft 377 kts 35°
2026-05-08 02:27 48.30616 0.80082 17143 ft 375 kts 35°
2026-05-08 02:27 48.32737 0.82352 16849 ft 374 kts 35°
2026-05-08 02:28 48.34660 0.84953 16558 ft 372 kts 51°
2026-05-08 02:28 48.36041 0.88227 16276 ft 369 kts 63°
2026-05-08 02:28 48.37228 0.91649 15987 ft 367 kts 64°
2026-05-08 02:28 48.38394 0.95063 15703 ft 365 kts 64°
2026-05-08 02:29 48.39558 0.98453 15424 ft 363 kts 64°
2026-05-08 02:29 48.40717 1.01821 15127 ft 362 kts 64°
2026-05-08 02:29 48.41875 1.05179 14827 ft 360 kts 64°
2026-05-08 02:29 48.43026 1.08523 14484 ft 358 kts 64°
2026-05-08 02:30 48.44154 1.11805 14150 ft 356 kts 64°
2026-05-08 02:30 48.45287 1.15105 13816 ft 355 kts 64°
2026-05-08 02:30 48.46417 1.18400 13525 ft 349 kts 64°
2026-05-08 02:30 48.47509 1.21586 13329 ft 336 kts 64°
2026-05-08 02:31 48.48564 1.24666 13118 ft 325 kts 64°
2026-05-08 02:31 48.49592 1.27674 12770 ft 319 kts 64°
2026-05-08 02:31 48.51141 1.32211 12305 ft 309 kts 64°
2026-05-08 02:31 48.53081 1.37863 11745 ft 307 kts 63°
2026-05-08 02:32 48.55036 1.43566 11416 ft 305 kts 63°
2026-05-08 02:32 48.57043 1.49167 11084 ft 303 kts 54°
2026-05-08 02:32 48.60391 1.52834 10720 ft 298 kts 25°
2026-05-08 02:32 48.64122 1.55534 10324 ft 295 kts 24°
2026-05-08 02:33 48.67796 1.58218 9939 ft 291 kts 24°
2026-05-08 02:33 48.71417 1.60888 9541 ft 289 kts 25°
2026-05-08 02:33 48.75015 1.63553 9168 ft 287 kts 25°
2026-05-08 02:33 48.78558 1.66279 8991 ft 286 kts 31°
2026-05-08 02:34 48.81769 1.69850 8317 ft 284 kts 37°
2026-05-08 02:34 48.84867 1.73460 7534 ft 278 kts 37°
2026-05-08 02:34 48.87916 1.77007 6762 ft 273 kts 37°
2026-05-08 02:34 48.89958 1.79394 6223 ft 270 kts 38°
2026-05-08 02:35 48.91256 1.81434 5778 ft 269 kts 53°
2026-05-08 02:35 48.92316 1.83760 5383 ft 267 kts 58°
2026-05-08 02:35 48.93229 1.86208 5059 ft 264 kts 62°
2026-05-08 02:35 48.94079 1.88680 4993 ft 265 kts 65°
2026-05-08 02:36 48.94638 1.91359 4997 ft 265 kts 77°
2026-05-08 02:36 48.95070 1.94087 4994 ft 265 kts 75°
2026-05-08 02:36 48.95413 1.96845 4991 ft 265 kts 79°
2026-05-08 02:36 48.95811 1.99513 4997 ft 249 kts 75°
2026-05-08 02:37 48.96280 2.01952 5017 ft 232 kts 73°
2026-05-08 02:37 48.96645 2.04279 5032 ft 223 kts 81°
2026-05-08 02:37 48.96780 2.06635 5036 ft 223 kts 87°
2026-05-08 02:37 48.96811 2.08992 5040 ft 224 kts 89°
2026-05-08 02:38 48.96863 2.11324 5036 ft 212 kts 85°
2026-05-08 02:38 48.96984 2.13461 5080 ft 194 kts 84°
2026-05-08 02:38 48.97097 2.15455 5105 ft 191 kts 85°
2026-05-08 02:38 48.97199 2.17456 5140 ft 190 kts 85°
2026-05-08 02:39 48.97305 2.19469 5141 ft 191 kts 85°
2026-05-08 02:39 48.97414 2.21492 4996 ft 192 kts 85°
2026-05-08 02:39 48.97522 2.23513 4753 ft 191 kts 85°
2026-05-08 02:39 48.97629 2.25520 4444 ft 190 kts 85°
2026-05-08 02:40 48.97736 2.27511 4162 ft 187 kts 85°
2026-05-08 02:40 48.97840 2.29469 3889 ft 183 kts 85°
2026-05-08 02:40 48.97942 2.31375 3627 ft 178 kts 86°
2026-05-08 02:40 48.98041 2.33221 3412 ft 174 kts 86°
2026-05-08 02:41 48.98138 2.35038 3175 ft 169 kts 86°
2026-05-08 02:41 48.98232 2.36771 2944 ft 159 kts 86°
2026-05-08 02:41 48.98318 2.38375 2737 ft 150 kts 86°
2026-05-08 02:41 48.98399 2.39888 2542 ft 141 kts 86°
2026-05-08 02:42 48.98477 2.41357 2357 ft 135 kts 87°
2026-05-08 02:42 48.98551 2.42756 2168 ft 135 kts 87°
2026-05-08 02:42 48.98627 2.44179 1985 ft 135 kts 87°
2026-05-08 02:42 48.98705 2.45596 1809 ft 134 kts 87°
2026-05-08 02:43 48.98783 2.47013 1622 ft 134 kts 87°
2026-05-08 02:43 48.98860 2.48429 1444 ft 134 kts 86°
2026-05-08 02:43 48.98931 2.49842 1271 ft 134 kts 87°
2026-05-08 02:43 48.99004 2.51253 1079 ft 134 kts 85°
2026-05-08 02:44 48.99073 2.52669 892 ft 134 kts 86°
2026-05-08 02:44 48.99150 2.54078 698 ft 133 kts 84°
2026-05-08 02:44 48.99228 2.55483 521 ft 133 kts 84°
2026-05-08 02:44 48.99307 2.56883 376 ft 133 kts 84°
2026-05-08 02:45 48.99376 2.58130 364 ft 92 kts 85°
2026-05-08 02:45 48.99412 2.58793 364 ft 40 kts 85°
2026-05-08 02:45 48.99451 2.59186 361 ft 29 kts 71°
2026-05-08 02:45 48.99526 2.59445 369 ft 25 kts 65°
2026-05-08 02:46 48.99596 2.59655 369 ft 20 kts 47°
2026-05-08 02:46 48.99676 2.59686 365 ft 10 kts 355°
2026-05-08 02:46 48.99753 2.59677 367 ft 13 kts 355°
2026-05-08 02:46 48.99857 2.59666 364 ft 16 kts 355°
2026-05-08 02:47 48.99977 2.59652 362 ft 19 kts 355°
2026-05-08 02:47 49.00072 2.59591 368 ft 14 kts 295°
2026-05-08 02:47 49.00070 2.59433 368 ft 17 kts 266°
2026-05-08 02:47 49.00062 2.59240 366 ft 20 kts 266°
2026-05-08 02:48 49.00051 2.59021 365 ft 21 kts 265°
2026-05-08 02:48 49.00078 2.58897 366 ft 7 kts 340°
2026-05-08 02:48 49.00127 2.58890 366 ft 9 kts 355°
2026-05-08 02:48 49.00199 2.58882 363 ft 12 kts 355°
2026-05-08 02:49 49.00294 2.58870 367 ft 15 kts 355°
2026-05-08 02:49 49.00408 2.58856 363 ft 18 kts 355°
2026-05-08 02:49 49.00520 2.58842 366 ft 12 kts 355°
2026-05-08 02:49 49.00594 2.58833 364 ft 3 kts 355°
2026-05-08 02:50 49.00613 2.58833 363 ft 4 kts
2026-05-08 02:50 49.00634 2.58864 369 ft 5 kts 65°
2026-05-08 02:50 49.00638 2.58927 367 ft 7 kts 85°
2026-05-08 02:50 49.00640 2.58963 366 ft 0 kts 85°